| time (UTC) | temp C | wind direction | speed KPH | gust KPH | rain 1hr cm | rain 24hr cm | rain mn cm | humidity % | barometer mb |
| 20260905233003 | 22 | 327 | 4.8 | 22.5 | 0.00 | 0.00 | 0.00 | 50 | 1014.8 |
| 20260905232524 | 22 | 329 | 4.8 | 17.7 | 0.00 | 0.00 | 0.00 | 50 | 1014.8 |
| 20260905232024 | 22 | 330 | 4.8 | 20.9 | 0.00 | 0.00 | 0.00 | 49 | 1014.8 |
| 20260905231503 | 22 | 323 | 4.8 | 20.9 | 0.00 | 0.00 | 0.00 | 49 | 1014.8 |
| 20260905231003 | 22 | 332 | 6.4 | 19.3 | 0.00 | 0.00 | 0.00 | 51 | 1014.8 |
| 20260905230503 | 22 | 328 | 4.8 | 19.3 | 0.00 | 0.00 | 0.00 | 51 | 1014.8 |
| 20260905230003 | 22 | 299 | 3.2 | 12.9 | 0.00 | 0.00 | 0.00 | 50 | 1014.8 |
| 20260905225524 | 22 | 274 | 4.8 | 14.5 | 0.00 | 0.00 | 0.00 | 51 | 1014.8 |
| 20260905225024 | 22 | 266 | 4.8 | 17.7 | 0.00 | 0.00 | 0.00 | 51 | 1014.8 |
| 20260905224503 | 22 | 292 | 4.8 | 17.7 | 0.00 | 0.00 | 0.00 | 50 | 1014.8 |
| 20260905224003 | 23 | 322 | 4.8 | 12.9 | 0.00 | 0.00 | 0.00 | 50 | 1014.8 |
| 20260905223503 | 23 | 321 | 4.8 | 12.9 | 0.00 | 0.00 | 0.00 | 50 | 1014.8 |
| 20260905223003 | 23 | 326 | 4.8 | 22.5 | 0.00 | 0.00 | 0.00 | 48 | 1014.8 |
| 20260905222503 | 23 | 328 | 4.8 | 22.5 | 0.00 | 0.00 | 0.00 | 48 | 1014.8 |
| 20260905222003 | 23 | 315 | 4.8 | 14.5 | 0.00 | 0.00 | 0.00 | 48 | 1014.8 |
| 20260905221503 | 23 | 310 | 4.8 | 16.1 | 0.00 | 0.00 | 0.00 | 46 | 1014.8 |
| 20260905221003 | 23 | 311 | 4.8 | 16.1 | 0.00 | 0.00 | 0.00 | 46 | 1014.8 |
| 20260905220503 | 23 | 333 | 3.2 | 16.1 | 0.00 | 0.00 | 0.00 | 46 | 1014.8 |
| 20260905220003 | 23 | 336 | 4.8 | 17.7 | 0.00 | 0.00 | 0.00 | 47 | 1014.8 |
| 20260905215503 | 23 | 322 | 4.8 | 17.7 | 0.00 | 0.00 | 0.00 | 46 | 1014.8 |
| 20260905215024 | 23 | 296 | 4.8 | 16.1 | 0.00 | 0.00 | 0.00 | 48 | 1014.8 |
| 20260905214503 | 23 | 278 | 4.8 | 19.3 | 0.00 | 0.00 | 0.00 | 46 | 1014.8 |
| 20260905214003 | 23 | 302 | 4.8 | 12.9 | 0.00 | 0.00 | 0.00 | 44 | 1014.4 |
| 20260905213524 | 23 | 313 | 4.8 | 12.9 | 0.00 | 0.00 | 0.00 | 44 | 1014.4 |
| 20260905213003 | 23 | 278 | 3.2 | 14.5 | 0.00 | 0.00 | 0.00 | 46 | 1014.4 |
| 20260905212503 | 23 | 275 | 4.8 | 14.5 | 0.00 | 0.00 | 0.00 | 46 | 1014.4 |
| 20260905212024 | 23 | 271 | 4.8 | 14.5 | 0.00 | 0.00 | 0.00 | 45 | 1014.4 |
| 20260905211524 | 24 | 267 | 4.8 | 12.9 | 0.00 | 0.00 | 0.00 | 43 | 1014.4 |
| 20260905211003 | 24 | 276 | 3.2 | 12.9 | 0.00 | 0.00 | 0.00 | 41 | 1014.4 |
| 20260905210503 | 24 | 274 | 3.2 | 12.9 | 0.00 | 0.00 | 0.00 | 41 | 1014.4 |
| 20260905210003 | 24 | 287 | 3.2 | 12.9 | 0.00 | 0.00 | 0.00 | 41 | 1014.4 |
| 20260905205503 | 23 | 289 | 4.8 | 11.3 | 0.00 | 0.00 | 0.00 | 42 | 1014.4 |
| 20260905205003 | 23 | 259 | 4.8 | 17.7 | 0.00 | 0.00 | 0.00 | 41 | 1014.4 |
| 20260905204503 | 23 | 261 | 3.2 | 17.7 | 0.00 | 0.00 | 0.00 | 41 | 1014.4 |
| 20260905204003 | 23 | 302 | 3.2 | 14.5 | 0.00 | 0.00 | 0.00 | 41 | 1014.4 |
| 20260905203503 | 23 | 321 | 3.2 | 12.9 | 0.00 | 0.00 | 0.00 | 44 | 1014.4 |
| 20260905203003 | 23 | 318 | 3.2 | 9.7 | 0.00 | 0.00 | 0.00 | 45 | 1014.4 |
| 20260905202503 | 23 | 300 | 3.2 | 9.7 | 0.00 | 0.00 | 0.00 | 46 | 1014.4 |
| 20260905202003 | 23 | 267 | 3.2 | 14.5 | 0.00 | 0.00 | 0.00 | 47 | 1014.4 |
| 20260905201503 | 23 | 270 | 4.8 | 14.5 | 0.00 | 0.00 | 0.00 | 47 | 1014.4 |
| 20260905201003 | 23 | 265 | 3.2 | 12.9 | 0.00 | 0.00 | 0.00 | 48 | 1014.4 |
| 20260905200503 | 22 | 271 | 3.2 | 9.7 | 0.00 | 0.00 | 0.00 | 46 | 1014.4 |
| 20260905200003 | 22 | 258 | 3.2 | 9.7 | 0.00 | 0.00 | 0.00 | 49 | 1014.4 |
| 20260905195503 | 22 | 237 | 4.8 | 12.9 | 0.00 | 0.00 | 0.00 | 50 | 1014.4 |
| 20260905195024 | 22 | 247 | 4.8 | 12.9 | 0.00 | 0.00 | 0.00 | 48 | 1014.4 |
| 20260905194503 | 22 | 260 | 3.2 | 11.3 | 0.00 | 0.00 | 0.00 | 50 | 1014.4 |
| 20260905194003 | 22 | 266 | 3.2 | 12.9 | 0.00 | 0.00 | 0.00 | 51 | 1014.4 |
| 20260905193503 | 22 | 261 | 3.2 | 12.9 | 0.00 | 0.00 | 0.00 | 50 | 1014.4 |
| 20260905193003 | 22 | 229 | 3.2 | 11.3 | 0.00 | 0.00 | 0.00 | 53 | 1014.4 |
| 20260905192503 | 21 | 225 | 3.2 | 12.9 | 0.00 | 0.00 | 0.00 | 53 | 1014.4 |
| 20260905192024 | 21 | 255 | 3.2 | 12.9 | 0.00 | 0.00 | 0.00 | 51 | 1014.4 |
| 20260905191503 | 21 | 250 | 3.2 | 11.3 | 0.00 | 0.00 | 0.00 | 54 | 1014.4 |
| 20260905191003 | 21 | 229 | 3.2 | 11.3 | 0.00 | 0.00 | 0.00 | 56 | 1014.4 |
| 20260905190503 | 21 | 227 | 3.2 | 12.9 | 0.00 | 0.00 | 0.00 | 57 | 1014.4 |
| 20260905190003 | 21 | 241 | 3.2 | 12.9 | 0.00 | 0.00 | 0.00 | 57 | 1014.4 |
| 20260905185503 | 21 | 249 | 3.2 | 6.4 | 0.00 | 0.00 | 0.00 | 60 | 1014.4 |
| 20260905185003 | 20 | 251 | 3.2 | 4.8 | 0.00 | 0.00 | 0.00 | 61 | 1014.4 |
| 20260905184503 | 20 | 235 | 3.2 | 8.0 | 0.00 | 0.00 | 0.00 | 64 | 1014.4 |
| 20260905184003 | 20 | 239 | 4.8 | 12.9 | 0.00 | 0.00 | 0.00 | 61 | 1014.4 |
| 20260905183503 | 20 | 244 | 4.8 | 12.9 | 0.00 | 0.00 | 0.00 | 62 | 1014.4 |
| 20260905183003 | 20 | 237 | 4.8 | 11.3 | 0.00 | 0.00 | 0.00 | 62 | 1014.4 |
| 20260905182503 | 20 | 235 | 3.2 | 11.3 | 0.00 | 0.00 | 0.00 | 61 | 1014.4 |
| 20260905182024 | 20 | 227 | 3.2 | 9.7 | 0.00 | 0.00 | 0.00 | 63 | 1014.4 |
| 20260905181524 | 19 | 230 | 3.2 | 8.0 | 0.00 | 0.00 | 0.00 | 63 | 1014.4 |
| 20260905181003 | 19 | 230 | 3.2 | 8.0 | 0.00 | 0.00 | 0.00 | 62 | 1014.4 |
| 20260905180503 | 19 | 230 | 3.2 | 8.0 | 0.00 | 0.00 | 0.00 | 65 | 1014.4 |
| 20260905180003 | 18 | 249 | 1.6 | 6.4 | 0.00 | 0.00 | 0.00 | 68 | 1014.4 |
| 20260905175503 | 18 | 244 | 3.2 | 8.0 | 0.00 | 0.00 | 0.00 | 68 | 1014.4 |
| 20260905175003 | 18 | 227 | 3.2 | 8.0 | 0.00 | 0.00 | 0.00 | 69 | 1014.4 |
| 20260905174503 | 18 | 205 | 3.2 | 11.3 | 0.00 | 0.00 | 0.00 | 69 | 1014.4 |
| 20260905174003 | 18 | 223 | 3.2 | 11.3 | 0.00 | 0.00 | 0.00 | 70 | 1014.4 |
| 20260905173503 | 18 | 231 | 3.2 | 9.7 | 0.00 | 0.00 | 0.00 | 71 | 1014.4 |
| 20260905173024 | 18 | 228 | 4.8 | 9.7 | 0.00 | 0.00 | 0.00 | 71 | 1014.4 |
| 20260905172503 | 18 | 230 | 3.2 | 9.7 | 0.00 | 0.00 | 0.00 | 72 | 1014.4 |
| 20260905172003 | 17 | 230 | 3.2 | 8.0 | 0.00 | 0.00 | 0.00 | 73 | 1014.4 |
| 20260905171503 | 17 | 237 | 1.6 | 8.0 | 0.00 | 0.00 | 0.00 | 73 | 1014.4 |
| 20260905171003 | 17 | 242 | 0.0 | 4.8 | 0.00 | 0.00 | 0.00 | 73 | 1014.4 |
| 20260905170503 | 17 | 0 | 0.0 | 0.0 | 0.00 | 0.00 | 0.00 | 74 | 1014.4 |
| 20260905170003 | 17 | 0 | 0.0 | 0.0 | 0.00 | 0.00 | 0.00 | 74 | 1014.4 |
| 20260905165503 | 17 | 0 | 0.0 | 0.0 | 0.00 | 0.00 | 0.00 | 75 | 1014.4 |
| 20260905165003 | 17 | 0 | 0.0 | 0.0 | 0.00 | 0.00 | 0.00 | 75 | 1014.4 |
| 20260905164503 | 16 | 0 | 0.0 | 0.0 | 0.00 | 0.00 | 0.00 | 76 | 1014.4 |
| 20260905164024 | 16 | 0 | 0.0 | 0.0 | 0.00 | 0.00 | 0.00 | 76 | 1014.4 |
| 20260905163503 | 16 | 0 | 0.0 | 0.0 | 0.00 | 0.00 | 0.00 | 77 | 1014.4 |
| 20260905163003 | 16 | 0 | 0.0 | 0.0 | 0.00 | 0.00 | 0.00 | 77 | 1014.4 |
| 20260905162503 | 16 | 0 | 0.0 | 0.0 | 0.00 | 0.00 | 0.00 | 78 | 1014.4 |
| 20260905162003 | 16 | 0 | 0.0 | 0.0 | 0.00 | 0.00 | 0.00 | 79 | 1014.4 |
| 20260905161503 | 16 | 0 | 0.0 | 0.0 | 0.00 | 0.00 | 0.00 | 81 | 1014.4 |
| 20260905161003 | 15 | 0 | 0.0 | 0.0 | 0.00 | 0.00 | 0.00 | 83 | 1014.4 |
| 20260905160503 | 15 | 0 | 0.0 | 0.0 | 0.00 | 0.00 | 0.00 | 86 | 1014.4 |
| 20260905160003 | 15 | 0 | 0.0 | 0.0 | 0.00 | 0.00 | 0.00 | 88 | 1014.4 |
| 20260905155503 | 15 | 0 | 0.0 | 0.0 | 0.00 | 0.00 | 0.00 | 89 | 1014.4 |
| 20260905155024 | 14 | 0 | 0.0 | 0.0 | 0.00 | 0.00 | 0.00 | 90 | 1014.4 |
| 20260905154503 | 14 | 0 | 0.0 | 0.0 | 0.00 | 0.00 | 0.00 | 91 | 1014.4 |
| 20260905154003 | 14 | 0 | 0.0 | 0.0 | 0.00 | 0.00 | 0.00 | 92 | 1014.4 |
| 20260905153503 | 13 | 0 | 0.0 | 0.0 | 0.00 | 0.00 | 0.00 | 92 | 1014.4 |
| 20260905153003 | 13 | 0 | 0.0 | 0.0 | 0.00 | 0.00 | 0.00 | 92 | 1014.4 |
| 20260905152503 | 13 | 0 | 0.0 | 0.0 | 0.00 | 0.00 | 0.00 | 92 | 1014.4 |
| 20260905152024 | 13 | 0 | 0.0 | 0.0 | 0.00 | 0.00 | 0.00 | 92 | 1014.4 |
| 20260905151503 | 13 | 0 | 0.0 | 0.0 | 0.00 | 0.00 | 0.00 | 93 | 1014.4 |
| 20260905151003 | 13 | 0 | 0.0 | 0.0 | 0.00 | 0.00 | 0.00 | 93 | 1014.4 |
| 20260905150503 | 13 | 0 | 0.0 | 0.0 | 0.00 | 0.00 | 0.00 | 93 | 1014.4 |
| 20260905150003 | 13 | 182 | 0.0 | 1.6 | 0.00 | 0.00 | 0.00 | 93 | 1014.4 |
| 20260905145524 | 13 | 182 | 0.0 | 1.6 | 0.00 | 0.00 | 0.00 | 93 | 1014.4 |
| 20260905145003 | 13 | 182 | 0.0 | 3.2 | 0.00 | 0.00 | 0.00 | 93 | 1014.4 |
| 20260905144503 | 13 | 182 | 0.0 | 3.2 | 0.00 | 0.00 | 0.00 | 93 | 1014.4 |
| 20260905144003 | 13 | 182 | 0.0 | 1.6 | 0.00 | 0.00 | 0.00 | 93 | 1014.3 |
| 20260905143503 | 12 | 182 | 0.0 | 3.2 | 0.00 | 0.00 | 0.00 | 93 | 1014.3 |
| 20260905143003 | 12 | 182 | 0.0 | 3.2 | 0.00 | 0.00 | 0.00 | 93 | 1014.3 |
| 20260905142503 | 12 | 182 | 0.0 | 1.6 | 0.00 | 0.00 | 0.00 | 93 | 1014.3 |
| 20260905142003 | 12 | 182 | 0.0 | 1.6 | 0.00 | 0.00 | 0.00 | 93 | 1014.3 |
| 20260905141503 | 12 | 182 | 0.0 | 1.6 | 0.00 | 0.00 | 0.00 | 93 | 1014.3 |
| 20260905141003 | 12 | 182 | 0.0 | 3.2 | 0.00 | 0.00 | 0.00 | 93 | 1014.3 |
| 20260905140503 | 12 | 182 | 1.6 | 4.8 | 0.00 | 0.00 | 0.00 | 93 | 1014.3 |
| 20260905140003 | 12 | 183 | 1.6 | 6.4 | 0.00 | 0.00 | 0.00 | 93 | 1014.3 |
| 20260905135503 | 12 | 184 | 1.6 | 6.4 | 0.00 | 0.00 | 0.00 | 93 | 1014.3 |
| 20260905135003 | 12 | 184 | 1.6 | 4.8 | 0.00 | 0.00 | 0.00 | 93 | 1014.3 |
| 20260905134503 | 12 | 184 | 1.6 | 4.8 | 0.00 | 0.00 | 0.00 | 93 | 1014.3 |
| 20260905134003 | 12 | 184 | 1.6 | 4.8 | 0.00 | 0.00 | 0.00 | 93 | 1014.3 |
| 20260905133503 | 12 | 185 | 1.6 | 6.4 | 0.00 | 0.00 | 0.00 | 93 | 1014.3 |
| 20260905133003 | 12 | 186 | 1.6 | 6.4 | 0.00 | 0.00 | 0.00 | 93 | 1014.3 |
| 20260905132503 | 13 | 185 | 1.6 | 6.4 | 0.00 | 0.00 | 0.00 | 93 | 1014.3 |
| 20260905132003 | 13 | 183 | 1.6 | 6.4 | 0.00 | 0.00 | 0.00 | 93 | 1014.3 |
| 20260905131503 | 13 | 184 | 1.6 | 4.8 | 0.00 | 0.00 | 0.00 | 93 | 1014.3 |
| 20260905131003 | 13 | 183 | 1.6 | 4.8 | 0.00 | 0.00 | 0.00 | 93 | 1014.3 |
| 20260905130524 | 13 | 182 | 0.0 | 3.2 | 0.00 | 0.00 | 0.00 | 93 | 1014.3 |
| 20260905130024 | 13 | 182 | 0.0 | 6.4 | 0.00 | 0.00 | 0.00 | 93 | 1014.3 |
| 20260905125503 | 13 | 181 | 3.2 | 8.0 | 0.00 | 0.00 | 0.00 | 93 | 1014.3 |
| 20260905125003 | 13 | 181 | 3.2 | 8.0 | 0.00 | 0.00 | 0.00 | 93 | 1014.3 |
| 20260905124503 | 13 | 179 | 1.6 | 6.4 | 0.00 | 0.00 | 0.00 | 93 | 1014.3 |
| 20260905124024 | 13 | 177 | 1.6 | 6.4 | 0.00 | 0.00 | 0.00 | 93 | 1014.3 |
| 20260905123503 | 13 | 177 | 1.6 | 6.4 | 0.00 | 0.00 | 0.00 | 93 | 1014.3 |
| 20260905123004 | 13 | 176 | 1.6 | 6.4 | 0.00 | 0.00 | 0.00 | 93 | 1014.3 |
| 20260905122503 | 13 | 176 | 1.6 | 6.4 | 0.00 | 0.00 | 0.00 | 93 | 1014.3 |
| 20260905122003 | 13 | 176 | 1.6 | 6.4 | 0.00 | 0.00 | 0.00 | 93 | 1014.3 |
| 20260905121503 | 13 | 175 | 0.0 | 4.8 | 0.00 | 0.00 | 0.00 | 93 | 1014.3 |
| 20260905121003 | 13 | 175 | 1.6 | 4.8 | 0.00 | 0.00 | 0.00 | 93 | 1014.3 |
| 20260905120503 | 13 | 175 | 1.6 | 4.8 | 0.00 | 0.00 | 0.00 | 93 | 1014.3 |
| 20260905120024 | 13 | 176 | 1.6 | 4.8 | 0.00 | 0.00 | 0.00 | 93 | 1014.3 |
| 20260905115503 | 13 | 176 | 1.6 | 4.8 | 0.00 | 0.00 | 0.00 | 93 | 1014.3 |
| 20260905115003 | 13 | 177 | 1.6 | 4.8 | 0.00 | 0.00 | 0.00 | 93 | 1014.3 |
| 20260905114503 | 13 | 177 | 1.6 | 6.4 | 0.00 | 0.00 | 0.00 | 93 | 1014.3 |
| 20260905114024 | 13 | 177 | 1.6 | 6.4 | 0.00 | 0.00 | 0.00 | 93 | 1014.3 |
| 20260905113522 | 13 | 178 | 1.6 | 6.4 | 0.00 | 0.00 | 0.00 | 93 | 1014.3 |
| 20260905113001 | 13 | 180 | 1.6 | 6.4 | 0.00 | 0.00 | 0.00 | 93 | 1014.3 |
| 20260905112501 | 13 | 172 | 1.6 | 8.0 | 0.00 | 0.00 | 0.00 | 93 | 1014.3 |
| 20260905112001 | 13 | 179 | 3.2 | 8.0 | 0.00 | 0.00 | 0.00 | 93 | 1014.3 |
| 20260905111522 | 13 | 179 | 3.2 | 8.0 | 0.00 | 0.00 | 0.00 | 93 | 1014.3 |
| 20260905111002 | 13 | 159 | 1.6 | 8.0 | 0.00 | 0.00 | 0.00 | 93 | 1014.3 |
| 20260905110501 | 13 | 158 | 3.2 | 8.0 | 0.00 | 0.00 | 0.00 | 93 | 1014.3 |
| 20260905110002 | 13 | 157 | 3.2 | 9.7 | 0.00 | 0.00 | 0.00 | 93 | 1014.6 |
| 20260905105501 | 13 | 156 | 1.6 | 9.7 | 0.00 | 0.00 | 0.00 | 93 | 1014.6 |
| 20260905105001 | 13 | 156 | 0.0 | 4.8 | 0.00 | 0.00 | 0.00 | 93 | 1014.6 |
| 20260905104502 | 13 | 155 | 1.6 | 4.8 | 0.00 | 0.00 | 0.00 | 93 | 1014.6 |
| 20260905104001 | 13 | 155 | 1.6 | 4.8 | 0.00 | 0.00 | 0.00 | 93 | 1014.6 |
| 20260905103523 | 13 | 156 | 1.6 | 6.4 | 0.00 | 0.00 | 0.00 | 93 | 1014.6 |
| 20260905103001 | 13 | 158 | 1.6 | 8.0 | 0.00 | 0.00 | 0.00 | 93 | 1014.6 |
| 20260905102501 | 13 | 159 | 1.6 | 8.0 | 0.00 | 0.00 | 0.00 | 93 | 1014.6 |
| 20260905102002 | 13 | 159 | 1.6 | 6.4 | 0.00 | 0.00 | 0.00 | 92 | 1014.6 |
| 20260905101501 | 13 | 159 | 1.6 | 8.0 | 0.00 | 0.00 | 0.00 | 92 | 1014.6 |
| 20260905101001 | 13 | 160 | 1.6 | 8.0 | 0.00 | 0.00 | 0.00 | 92 | 1014.6 |
| 20260905100501 | 13 | 160 | 1.6 | 9.7 | 0.00 | 0.00 | 0.00 | 92 | 1014.6 |
| 20260905100023 | 13 | 160 | 1.6 | 9.7 | 0.00 | 0.00 | 0.00 | 93 | 1014.6 |
| 20260905095502 | 13 | 162 | 1.6 | 6.4 | 0.00 | 0.00 | 0.00 | 92 | 1014.6 |
| 20260905095002 | 13 | 163 | 3.2 | 8.0 | 0.00 | 0.00 | 0.00 | 92 | 1014.6 |
| 20260905094522 | 13 | 163 | 3.2 | 8.0 | 0.00 | 0.00 | 0.00 | 92 | 1014.6 |
| 20260905094001 | 13 | 155 | 1.6 | 9.7 | 0.00 | 0.00 | 0.00 | 92 | 1012.6 |
| 20260905093502 | 13 | 154 | 1.6 | 9.7 | 0.00 | 0.00 | 0.00 | 92 | 1012.6 |
| 20260905093002 | 13 | 172 | 3.2 | 8.0 | 0.00 | 0.00 | 0.00 | 92 | 1012.6 |
| 20260905092501 | 13 | 187 | 3.2 | 8.0 | 0.00 | 0.00 | 0.00 | 92 | 1012.6 |
| 20260905092001 | 13 | 195 | 3.2 | 9.7 | 0.00 | 0.00 | 0.00 | 92 | 1012.6 |
| 20260905091501 | 13 | 187 | 1.6 | 9.7 | 0.00 | 0.00 | 0.00 | 92 | 1012.6 |
| 20260905091001 | 13 | 161 | 1.6 | 9.7 | 0.00 | 0.00 | 0.00 | 92 | 1012.6 |
| 20260905090522 | 13 | 162 | 3.2 | 9.7 | 0.00 | 0.00 | 0.00 | 92 | 1012.6 |
| 20260905090002 | 13 | 159 | 1.6 | 9.7 | 0.00 | 0.00 | 0.00 | 91 | 1012.6 |
| 20260905085502 | 13 | 166 | 3.2 | 9.7 | 0.00 | 0.00 | 0.00 | 91 | 1012.6 |
| 20260905085001 | 13 | 179 | 1.6 | 8.0 | 0.00 | 0.00 | 0.00 | 91 | 1012.6 |
| 20260905084502 | 13 | 186 | 1.6 | 6.4 | 0.00 | 0.00 | 0.00 | 91 | 1012.6 |
| 20260905084001 | 13 | 169 | 1.6 | 8.0 | 0.00 | 0.00 | 0.00 | 91 | 1012.6 |
| 20260905083502 | 13 | 157 | 1.6 | 8.0 | 0.00 | 0.00 | 0.00 | 91 | 1012.6 |
| 20260905083002 | 13 | 155 | 1.6 | 8.0 | 0.00 | 0.00 | 0.00 | 91 | 1012.6 |
| 20260905082501 | 13 | 155 | 1.6 | 4.8 | 0.00 | 0.00 | 0.00 | 91 | 1012.6 |
| 20260905082002 | 13 | 156 | 1.6 | 4.8 | 0.00 | 0.00 | 0.00 | 91 | 1012.6 |
| 20260905081523 | 13 | 160 | 1.6 | 8.0 | 0.00 | 0.00 | 0.00 | 90 | 1012.6 |
| 20260905081002 | 13 | 163 | 3.2 | 8.0 | 0.00 | 0.00 | 0.00 | 90 | 1012.6 |
| 20260905080502 | 13 | 162 | 3.2 | 8.0 | 0.00 | 0.00 | 0.00 | 90 | 1012.6 |
| 20260905080002 | 13 | 157 | 1.6 | 4.8 | 0.00 | 0.00 | 0.00 | 90 | 1012.6 |
| 20260905075502 | 13 | 158 | 0.0 | 4.8 | 0.00 | 0.00 | 0.00 | 90 | 1012.6 |
| 20260905075001 | 13 | 159 | 1.6 | 6.4 | 0.00 | 0.00 | 0.00 | 90 | 1012.6 |
| 20260905074501 | 13 | 159 | 1.6 | 6.4 | 0.00 | 0.00 | 0.00 | 89 | 1012.6 |
| 20260905074022 | 13 | 159 | 1.6 | 6.4 | 0.00 | 0.00 | 0.00 | 89 | 1012.6 |
| 20260905073502 | 13 | 160 | 1.6 | 6.4 | 0.00 | 0.00 | 0.00 | 89 | 1012.6 |
| 20260905073002 | 13 | 161 | 1.6 | 6.4 | 0.00 | 0.03 | 0.00 | 88 | 1012.6 |
| 20260905072502 | 13 | 162 | 1.6 | 6.4 | 0.00 | 0.03 | 0.00 | 88 | 1012.6 |
| 20260905072002 | 13 | 163 | 1.6 | 8.0 | 0.00 | 0.03 | 0.00 | 88 | 1012.6 |
| 20260905071502 | 13 | 164 | 3.2 | 9.7 | 0.00 | 0.03 | 0.00 | 88 | 1012.6 |
| 20260905071001 | 13 | 165 | 1.6 | 9.7 | 0.00 | 0.03 | 0.00 | 87 | 1012.6 |
| 20260905070502 | 13 | 167 | 1.6 | 6.4 | 0.00 | 0.03 | 0.00 | 87 | 1012.6 |
| 20260905070009 | 13 | 167 | 1.6 | 6.4 | 0.00 | 0.03 | 0.00 | 87 | 1012.6 |
| 20260905065523 | 13 | 168 | 1.6 | 6.4 | 0.00 | 0.03 | 0.03 | 87 | 1012.6 |
| 20260905065001 | 13 | 169 | 1.6 | 6.4 | 0.00 | 0.03 | 0.03 | 87 | 1012.6 |
| 20260905064501 | 13 | 169 | 1.6 | 6.4 | 0.00 | 0.03 | 0.03 | 87 | 1012.6 |
| 20260905064002 | 13 | 169 | 1.6 | 6.4 | 0.00 | 0.03 | 0.03 | 86 | 1012.6 |
| 20260905063502 | 13 | 169 | 0.0 | 3.2 | 0.00 | 0.03 | 0.03 | 86 | 1012.6 |
| 20260905063002 | 13 | 169 | 1.6 | 6.4 | 0.00 | 0.03 | 0.03 | 86 | 1012.6 |
| 20260905062502 | 13 | 169 | 1.6 | 6.4 | 0.00 | 0.03 | 0.03 | 86 | 1012.6 |
| 20260905062002 | 13 | 169 | 1.6 | 6.4 | 0.00 | 0.05 | 0.03 | 85 | 1012.6 |
| 20260905061501 | 13 | 170 | 3.2 | 6.4 | 0.00 | 0.08 | 0.03 | 85 | 1012.6 |
| 20260905061002 | 13 | 170 | 3.2 | 8.0 | 0.00 | 0.08 | 0.03 | 85 | 1012.6 |
| 20260905060501 | 13 | 190 | 3.2 | 8.0 | 0.00 | 0.08 | 0.03 | 85 | 1012.6 |
| 20260905060002 | 13 | 227 | 3.2 | 4.8 | 0.00 | 0.10 | 0.03 | 84 | 1012.6 |
| 20260905055502 | 14 | 245 | 1.6 | 4.8 | 0.00 | 0.13 | 0.03 | 84 | 1012.6 |
| 20260905055002 | 14 | 247 | 0.0 | 3.2 | 0.00 | 0.15 | 0.03 | 84 | 1012.6 |
| 20260905054502 | 14 | 247 | 0.0 | 3.2 | 0.00 | 0.15 | 0.03 | 84 | 1012.6 |
| 20260905054002 | 14 | 247 | 1.6 | 3.2 | 0.00 | 0.18 | 0.03 | 84 | 1012.6 |
| 20260905053502 | 14 | 247 | 1.6 | 4.8 | 0.00 | 0.18 | 0.03 | 84 | 1012.6 |
| 20260905053002 | 14 | 246 | 1.6 | 4.8 | 0.00 | 0.20 | 0.03 | 84 | 1012.6 |
| 20260905052502 | 14 | 245 | 1.6 | 6.4 | 0.00 | 0.20 | 0.03 | 84 | 1012.6 |
| 20260905052002 | 14 | 243 | 1.6 | 6.4 | 0.00 | 0.23 | 0.03 | 83 | 1012.6 |
| 20260905051501 | 14 | 242 | 1.6 | 4.8 | 0.00 | 0.23 | 0.03 | 83 | 1012.6 |
| 20260905051002 | 14 | 242 | 0.0 | 4.8 | 0.00 | 0.23 | 0.03 | 83 | 1012.6 |
| 20260905050502 | 14 | 242 | 0.0 | 4.8 | 0.00 | 0.23 | 0.03 | 83 | 1012.6 |
| 20260905050002 | 14 | 242 | 1.6 | 4.8 | 0.00 | 0.23 | 0.03 | 83 | 1012.6 |
| 20260905045502 | 14 | 242 | 1.6 | 4.8 | 0.00 | 0.23 | 0.03 | 82 | 1012.6 |
| 20260905045001 | 14 | 242 | 1.6 | 4.8 | 0.00 | 0.25 | 0.03 | 82 | 1012.6 |
| 20260905044502 | 14 | 245 | 1.6 | 4.8 | 0.00 | 0.25 | 0.03 | 82 | 1012.6 |
| 20260905044002 | 14 | 251 | 3.2 | 6.4 | 0.00 | 0.25 | 0.03 | 82 | 1012.6 |
| 20260905043523 | 14 | 253 | 3.2 | 6.4 | 0.00 | 0.25 | 0.03 | 82 | 1012.6 |
| 20260905043001 | 15 | 252 | 1.6 | 6.4 | 0.00 | 0.25 | 0.03 | 81 | 1012.6 |
| 20260905042502 | 15 | 253 | 1.6 | 6.4 | 0.00 | 0.25 | 0.03 | 81 | 1012.6 |
| 20260905042002 | 15 | 252 | 1.6 | 6.4 | 0.00 | 0.25 | 0.03 | 81 | 1012.6 |
| 20260905041502 | 15 | 251 | 1.6 | 6.4 | 0.00 | 0.25 | 0.03 | 81 | 1012.6 |
| 20260905041023 | 15 | 249 | 1.6 | 6.4 | 0.00 | 0.25 | 0.03 | 80 | 1012.6 |
| 20260905040523 | 15 | 242 | 1.6 | 8.0 | 0.00 | 0.28 | 0.03 | 79 | 1012.6 |
| 20260905040002 | 15 | 250 | 3.2 | 8.0 | 0.00 | 0.28 | 0.03 | 79 | 1012.6 |
| 20260905035502 | 15 | 252 | 3.2 | 8.0 | 0.00 | 0.30 | 0.03 | 78 | 1012.6 |
| 20260905035002 | 15 | 248 | 1.6 | 8.0 | 0.00 | 0.30 | 0.03 | 78 | 1012.6 |
| 20260905034502 | 15 | 247 | 3.2 | 9.7 | 0.00 | 0.33 | 0.03 | 78 | 1012.6 |
| 20260905034002 | 15 | 248 | 3.2 | 9.7 | 0.00 | 0.36 | 0.03 | 78 | 1012.6 |
| 20260905033523 | 15 | 251 | 1.6 | 4.8 | 0.00 | 0.36 | 0.03 | 78 | 1012.6 |
| 20260905033002 | 15 | 253 | 1.6 | 6.4 | 0.00 | 0.36 | 0.03 | 77 | 1012.6 |
| 20260905032523 | 15 | 254 | 1.6 | 6.4 | 0.00 | 0.36 | 0.03 | 76 | 1012.6 |
| 20260905032002 | 15 | 262 | 0.0 | 4.8 | 0.00 | 0.36 | 0.03 | 76 | 1012.6 |
| 20260905031502 | 15 | 265 | 1.6 | 6.4 | 0.00 | 0.36 | 0.03 | 75 | 1012.6 |
| 20260905031002 | 15 | 279 | 0.0 | 6.4 | 0.00 | 0.36 | 0.03 | 75 | 1012.6 |
| 20260905030502 | 16 | 315 | 0.0 | 3.2 | 0.00 | 0.36 | 0.03 | 74 | 1012.6 |
| 20260905030002 | 16 | 314 | 1.6 | 4.8 | 0.00 | 0.36 | 0.03 | 74 | 1012.6 |
| 20260905025523 | 16 | 314 | 1.6 | 4.8 | 0.00 | 0.36 | 0.03 | 74 | 1012.6 |
| 20260905025002 | 16 | 307 | 1.6 | 6.4 | 0.00 | 0.36 | 0.03 | 73 | 1012.6 |
| 20260905024502 | 16 | 303 | 1.6 | 6.4 | 0.00 | 0.36 | 0.03 | 73 | 1012.6 |
| 20260905024002 | 16 | 307 | 1.6 | 6.4 | 0.00 | 0.36 | 0.03 | 72 | 1012.6 |
| 20260905023502 | 16 | 310 | 1.6 | 6.4 | 0.00 | 0.36 | 0.03 | 72 | 1012.6 |
| 20260905023003 | 16 | 307 | 1.6 | 6.4 | 0.00 | 0.36 | 0.03 | 71 | 1012.6 |
| 20260905022502 | 17 | 300 | 1.6 | 4.8 | 0.00 | 0.36 | 0.03 | 71 | 1012.6 |
| 20260905022002 | 17 | 317 | 1.6 | 9.7 | 0.00 | 0.36 | 0.03 | 71 | 1012.6 |
| 20260905021502 | 17 | 326 | 3.2 | 9.7 | 0.00 | 0.36 | 0.03 | 70 | 1012.6 |
| 20260905021002 | 17 | 320 | 3.2 | 9.7 | 0.00 | 0.36 | 0.03 | 70 | 1012.6 |
| 20260905020502 | 17 | 316 | 1.6 | 6.4 | 0.00 | 0.36 | 0.03 | 69 | 1012.6 |
| 20260905020002 | 17 | 313 | 1.6 | 8.0 | 0.00 | 0.36 | 0.03 | 69 | 1012.6 |
| 20260905015502 | 18 | 285 | 3.2 | 8.0 | 0.00 | 0.36 | 0.03 | 68 | 1012.6 |
| 20260905015023 | 18 | 254 | 3.2 | 9.7 | 0.00 | 0.36 | 0.03 | 68 | 1012.6 |
| 20260905014523 | 18 | 289 | 3.2 | 14.5 | 0.00 | 0.36 | 0.03 | 66 | 1012.6 |
| 20260905014002 | 18 | 318 | 3.2 | 14.5 | 0.00 | 0.36 | 0.03 | 65 | 1012.6 |
| 20260905013502 | 18 | 300 | 3.2 | 17.7 | 0.00 | 0.36 | 0.03 | 64 | 1012.6 |
| 20260905013023 | 19 | 287 | 3.2 | 17.7 | 0.00 | 0.36 | 0.03 | 63 | 1012.6 |
| 20260905012502 | 19 | 296 | 3.2 | 11.3 | 0.00 | 0.36 | 0.03 | 64 | 1012.6 |
| 20260905012023 | 20 | 311 | 3.2 | 8.0 | 0.00 | 0.36 | 0.03 | 63 | 1012.6 |
| 20260905011502 | 20 | 314 | 4.8 | 12.9 | 0.00 | 0.36 | 0.03 | 63 | 1012.6 |
| 20260905011002 | 20 | 309 | 3.2 | 12.9 | 0.00 | 0.36 | 0.03 | 62 | 1012.6 |
| 20260905010502 | 20 | 294 | 3.2 | 9.7 | 0.00 | 0.36 | 0.03 | 60 | 1012.6 |
| 20260905010002 | 20 | 273 | 1.6 | 8.0 | 0.00 | 0.36 | 0.03 | 60 | 1012.6 |
| 20260905005502 | 20 | 309 | 3.2 | 17.7 | 0.00 | 0.36 | 0.03 | 60 | 1012.6 |
| 20260905005002 | 20 | 327 | 3.2 | 17.7 | 0.00 | 0.36 | 0.03 | 59 | 1012.6 |
| 20260905004502 | 20 | 321 | 3.2 | 11.3 | 0.00 | 0.36 | 0.03 | 59 | 1012.6 |
| 20260905004002 | 21 | 300 | 3.2 | 11.3 | 0.00 | 0.36 | 0.03 | 59 | 1012.6 |
| 20260905003502 | 21 | 295 | 3.2 | 9.7 | 0.00 | 0.36 | 0.03 | 59 | 1012.6 |
| 20260905003002 | 21 | 289 | 3.2 | 11.3 | 0.00 | 0.36 | 0.03 | 58 | 1012.6 |
| 20260905002502 | 21 | 261 | 3.2 | 11.3 | 0.00 | 0.36 | 0.03 | 58 | 1012.6 |
| 20260905002002 | 21 | 265 | 3.2 | 11.3 | 0.00 | 0.36 | 0.03 | 57 | 1012.6 |
| 20260905001502 | 21 | 306 | 3.2 | 11.3 | 0.00 | 0.36 | 0.03 | 56 | 1012.6 |
| 20260905001002 | 21 | 320 | 3.2 | 9.7 | 0.00 | 0.36 | 0.03 | 58 | 1012.6 |
| 20260905000523 | 21 | 326 | 3.2 | 14.5 | 0.00 | 0.36 | 0.03 | 58 | 1012.6 |
| 20260905000002 | 21 | 340 | 4.8 | 14.5 | 0.00 | 0.36 | 0.03 | 57 | 1012.6 |
| 20260904235502 | 21 | 335 | 3.2 | 12.9 | 0.00 | 0.36 | 0.03 | 56 | 1012.6 |
| 20260904235002 | 21 | 321 | 3.2 | 16.1 | 0.00 | 0.36 | 0.03 | 56 | 1012.6 |
| 20260904234523 | 21 | 335 | 3.2 | 16.1 | 0.00 | 0.36 | 0.03 | 57 | 1012.6 |
| 20260904234002 | 21 | 337 | 3.2 | 12.9 | 0.00 | 0.36 | 0.03 | 57 | 1012.6 |
| 20260904233502 | 21 | 321 | 3.2 | 16.1 | 0.00 | 0.36 | 0.03 | 57 | 1012.6 |